[[{"header":{"parameterUnit":"m.s-1","parameterCategory":1,"la1":30.2991,"la2":30.254,"lo1":-89.0895,"lo2":-89.0444,"dy":0.0017,"dx":0.0017,"nx":28,"ny":28,"refTime":"2024-03-10T09:00:00:Z","depth":0,"parameterNumber":2,"parameterNumberName":"U-component_of_WINDS"},"data":[0,0,0,0,0,0,0,0,0,0,0,0,0,0,0,0,0,0,0,0,0,0,0,0,0,0,0,0,0,0,0,0,0,0,0,0,0,0,0,0,0,0,0,0,0,0,0,0,0,0,0,0,0,0,0,0,0,0,0.1336,0.1336,0,0.1303,0.1302,0.1302,0.1329,0.1331,0.1332,0.1333,0.1295,0.1293,0.1291,0,0,0,0,0,0,0,0,0,0,0,0,0,0.1422,0.142,0.1336,0.1336,0.1335,0.1303,0.1302,0.1302,0.1329,0.1331,0.1332,0.1333,0.1296,0.1293,0.1291,0,0,0,0,0,0,0,0,0,0,0,0,0,0.1386,0.1419,0.1336,0.1345,0.1346,0.1303,0.1302,0.1302,0.1329,0.1331,0.1333,0.1334,0.1297,0.1294,0.1291,0.1236,0,0,0.1281,0.128,0,0,0,0,0,0,0,0,0.1388,0.1383,0.1344,0.1344,0.1345,0.1322,0.1319,0.1279,0.1329,0.1335,0.1333,0.1335,0.1303,0.1299,0.1289,0.1234,0.1233,0.1281,0.1279,0.1277,0.1277,0,0,0,0,0,0,0,0.139,0.1384,0.1323,0.1344,0.1344,0.135,0.1347,0.1311,0.1309,0.1335,0.1337,0.1333,0.1303,0.1292,0.1288,0.1232,0.1281,0.1278,0.1276,0.1275,0.1131,0.113,0,0,0,0,0,0,0.1392,0.1386,0.1324,0.1322,0.1371,0.1347,0.1344,0.1328,0.131,0.1309,0.1331,0.1334,0.1296,0.1292,0.1287,0.1221,0.1277,0.1274,0.1273,0.1133,0.1131,0.1129,0,0,0,0,0,0,0.1394,0.1386,0.1325,0.1355,0.1347,0.1344,0.1326,0.1326,0.1315,0.1307,0.1307,0.132,0.1297,0.1291,0.1249,0.1221,0.1273,0.127,0.1136,0.1133,0.113,0.109,0,0,0,0,0,0,0.1396,0.1387,0.1366,0.1354,0.1346,0.1288,0.1324,0.1324,0.131,0.1313,0.1297,0.1295,0.1298,0.1253,0.1246,0.1217,0.1268,0.1138,0.1134,0.1131,0.1094,0.1086,0.108,0,0,0,0,0,0.1399,0.1356,0.1365,0.1358,0.132,0.1286,0.1281,0.1287,0.1307,0.1286,0.1282,0.1296,0.1226,0.1249,0.124,0.121,0.114,0.1135,0.1131,0.1097,0.1088,0.108,0,0,0,0,0,0,0.1363,0.1354,0.1365,0.1316,0.1302,0.1291,0.1265,0.1277,0.1255,0.1259,0.1266,0.1262,0.1217,0.121,0.1236,0.1157,0.1186,0.118,0.1163,0.1154,0.1147,0.1149,0.1265,0,0,0,0,0,0.135,0.1325,0.1318,0.1275,0.1268,0.1268,0.1253,0.1259,0.1244,0.1238,0.123,0.1214,0.1189,0.1171,0.1147,0.1094,0.1091,0.107,0.1063,0.1057,0.1051,0.1022,0.1012,0.1115,0.1115,0.1115,0,0,0.1322,0.1314,0.1297,0.1268,0.1258,0.123,0.1262,0.1231,0.1211,0.1233,0.1192,0.1186,0.1169,0.1121,0.1099,0.1113,0.1022,0.1051,0.1047,0.1044,0.1017,0.1007,0.0998,0.1112,0.1112,0.1113,0,0,0.1256,0.1247,0.1211,0.1201,0.1186,0.1186,0.1178,0.1165,0.1162,0.1122,0.1138,0.1114,0.107,0.1057,0.1045,0.0976,0.0988,0.0968,0.093,0.0902,0.0894,0.0887,0.0861,0.0852,0.0963,0.0962,0.0962,0,0.1222,0.1182,0.1191,0.1159,0.1146,0.1167,0.1129,0.1119,0.1096,0.1086,0.1103,0.1048,0.1038,0.0988,0.0971,0.0961,0.0951,0.0969,0.0895,0.0888,0.0881,0.0857,0.0847,0.096,0.096,0.0961,0.0961,0,0.114,0.1112,0.1085,0.1064,0.1048,0.1014,0.1017,0.1,0.1007,0.1006,0.0965,0.0954,0.0928,0.0917,0.0924,0.0868,0.0877,0.0894,0.0923,0.0869,0.0846,0.0837,0.0957,0.0957,0.0958,0.0959,0,0,0.1048,0.1034,0.1024,0.1015,0.1,0.0979,0.0946,0.0922,0.0907,0.0891,0.0863,0.0826,0.0842,0.0829,0.0834,0.081,0.0755,0.083,0.083,0.0816,0.0692,0.0678,0.0667,0.0765,0.0763,0.0762,0.0693,0,0.098,0.0924,0.0932,0.0877,0.0851,0.0871,0.0843,0.0831,0.0829,0.0806,0.0804,0.0778,0.0802,0.0794,0.0771,0.0767,0.073,0.0772,0.0737,0.0736,0.0739,0.0655,0.064,0.0576,0.0685,0.0683,0.0682,0,0.0893,0.0876,0.0818,0.0809,0.0799,0.0773,0.0752,0.0731,0.0717,0.0718,0.0704,0.0714,0.0681,0.0712,0.0666,0.0694,0.0681,0.0677,0.0675,0.067,0.0704,0.0647,0.0556,0.0545,0.0668,0.0669,0.067,0,0.083,0.0792,0.0753,0.0745,0.0734,0.0715,0.0709,0.0698,0.0683,0.0666,0.0656,0.0634,0.0622,0.0604,0.0608,0.0631,0.0561,0.0593,0.0559,0.0559,0.0541,0.0542,0.0445,0.0536,0.0536,0.0536,0.0536,0,0.0752,0.0716,0.0725,0.07,0.0661,0.0671,0.0631,0.0628,0.0618,0.0593,0.061,0.0586,0.0594,0.0571,0.0574,0.0535,0.0529,0.0528,0.0529,0.0525,0.0525,0.0515,0.0519,0.0534,0.0534,0.0535,0.0535,0,0.0674,0.0678,0.0637,0.0631,0.0628,0.0599,0.0593,0.057,0.0571,0.0539,0.0532,0.0533,0.0506,0.051,0.0479,0.0482,0.0433,0.044,0.0437,0.0438,0.0404,0.0407,0.0296,0.0281,0.0383,0.0382,0.0381,0,0.0623,0.0596,0.0587,0.0572,0.0565,0.0541,0.0527,0.0537,0.0521,0.0505,0.0484,0.0459,0.044,0.0396,0.0393,0.0371,0.0376,0.0339,0.0373,0.037,0.0374,0.0375,0.0372,0.0331,0.033,0.0329,0.0329,0,0.0532,0.0536,0.0515,0.0496,0.0479,0.0464,0.045,0.0437,0.0445,0.0427,0.0401,0.0386,0.0356,0.0331,0.031,0.0304,0.0317,0.0319,0.0309,0.0304,0.0303,0.0302,0.0417,0.032,0.0321,0.0322,0.0322,0.0323,0.0464,0.0441,0.0432,0.0409,0.04,0.0387,0.0366,0.0365,0.0343,0.032,0.0328,0.0298,0.0286,0.026,0.0251,0.0228,0.0241,0.0228,0.0224,0.022,0.0216,0.0309,0.0224,0.0224,0.0224,0.0225,0.0225,0,0.0373,0.0368,0.0347,0.0329,0.031,0.0327,0.0313,0.0297,0.027,0.0259,0.0241,0.021,0.0187,0.0183,0.0161,0.0142,0.0148,0.0136,0.0136,0.0134,0.0206,0.0215,0.0132,0.0132,0.0132,0.0132,0.0132,0.0132,0.0323,0.0285,0.0288,0.0246,0.0242,0.0214,0.0204,0.0193,0.0184,0.015,0.0131,0.0129,0.0121,0.0099,0.0078,0.0077,0.0067,0.0053,0.0054,0.012,0.0129,0.0138,0.0147,0.0051,0.0051,-0.0015,-0.0016,-0.0016]},{"header":{"parameterUnit":"m.s-1","parameterCategory":1,"la1":30.2991,"la2":30.254,"lo1":-89.0895,"lo2":-89.0444,"dy":0.0017,"dx":0.0017,"nx":28,"ny":28,"refTime":"2024-03-10T09:00:00:Z","depth":0,"parameterNumber":3,"parameterNumberName":"V-component_of_WINDS"},"data":[0,0,0,0,0,0,0,0,0,0,0,0,0,0,0,0,0,0,0,0,0,0,0,0,0,0,0,0,0,0,0,0,0,0,0,0,0,0,0,0,0,0,0,0,0,0,0,0,0,0,0,0,0,0,0,0,0,0,-6.2778,-6.278,0,-6.2933,-6.2935,-6.2937,-6.2862,-6.2858,-6.2854,-6.285,-6.3006,-6.3014,-6.3021,0,0,0,0,0,0,0,0,0,0,0,0,0,-6.2414,-6.2421,-6.2778,-6.278,-6.2782,-6.2933,-6.2935,-6.2937,-6.2863,-6.2858,-6.2853,-6.2849,-6.3003,-6.3013,-6.3022,0,0,0,0,0,0,0,0,0,0,0,0,0,-6.2571,-6.2423,-6.2778,-6.2763,-6.2763,-6.2933,-6.2935,-6.2938,-6.2864,-6.2858,-6.2852,-6.2846,-6.3,-6.3012,-6.3023,-6.3215,0,0,-6.3059,-6.3064,0,0,0,0,0,0,0,0,-6.2562,-6.2584,-6.2763,-6.2765,-6.2765,-6.2872,-6.2864,-6.3031,-6.2865,-6.2826,-6.285,-6.2843,-6.2966,-6.298,-6.3022,-6.3222,-6.3229,-6.306,-6.3067,-6.3072,-6.3076,0,0,0,0,0,0,0,-6.2551,-6.2577,-6.2839,-6.2766,-6.2767,-6.2748,-6.2763,-6.2895,-6.2927,-6.2829,-6.2824,-6.2843,-6.2965,-6.3011,-6.3025,-6.3231,-6.306,-6.307,-6.3078,-6.3082,-6.3595,-6.3601,0,0,0,0,0,0,-6.2541,-6.2569,-6.2834,-6.2844,-6.2647,-6.2759,-6.2777,-6.2844,-6.2926,-6.2932,-6.2848,-6.2839,-6.2994,-6.3012,-6.3031,-6.326,-6.3072,-6.3083,-6.309,-6.3588,-6.3596,-6.3603,0,0,0,0,0,0,-6.2534,-6.2566,-6.2828,-6.2705,-6.2737,-6.2772,-6.2848,-6.285,-6.2896,-6.294,-6.2945,-6.2889,-6.299,-6.3014,-6.317,-6.3264,-6.3089,-6.3099,-6.3581,-6.3591,-6.36,-6.3721,0,0,0,0,0,0,-6.2524,-6.2564,-6.2638,-6.2707,-6.2744,-6.2967,-6.2854,-6.2857,-6.2917,-6.2906,-6.298,-6.2987,-6.2987,-6.3153,-6.3181,-6.3277,-6.3109,-6.3572,-6.3585,-6.3597,-6.3708,-6.3733,-6.3755,0,0,0,0,0,-6.2511,-6.2665,-6.2642,-6.2674,-6.2838,-6.2972,-6.2993,-6.2991,-6.2925,-6.2999,-6.3027,-6.2984,-6.3249,-6.3169,-6.3201,-6.3302,-6.3566,-6.3581,-6.3596,-6.3698,-6.3729,-6.3754,0,0,0,0,0,0,-6.2605,-6.2674,-6.2649,-6.283,-6.2896,-6.2959,-6.3053,-6.3024,-6.3109,-6.3095,-6.3088,-6.3106,-6.3267,-6.33,-6.3209,-6.3491,-6.3397,-6.3419,-6.3464,-6.3494,-6.3516,-6.3505,-6.3118,0,0,0,0,0,-6.2647,-6.2751,-6.2805,-6.296,-6.2994,-6.3018,-6.3077,-6.307,-6.3137,-6.3164,-6.3204,-6.327,-6.3367,-6.3432,-6.3525,-6.3712,-6.3727,-6.3797,-6.3821,-6.3839,-6.3858,-6.3959,-6.3991,-6.3652,-6.3652,-6.3652,0,0,-6.2734,-6.2785,-6.2851,-6.298,-6.303,-6.3138,-6.3042,-6.316,-6.3239,-6.3181,-6.3331,-6.3363,-6.3435,-6.3608,-6.3686,-6.364,-6.3955,-6.3858,-6.3873,-6.3882,-6.3978,-6.401,-6.4038,-6.3662,-6.366,-6.3659,0,0,-6.2948,-6.2998,-6.3132,-6.3184,-6.3261,-6.3276,-6.3308,-6.3376,-6.3395,-6.3545,-6.3504,-6.3597,-6.3766,-6.382,-6.3869,-6.4103,-6.4067,-6.4133,-6.4255,-6.4353,-6.438,-6.4404,-6.4487,-6.4517,-6.4152,-6.4152,-6.4153,0,-6.3047,-6.3208,-6.3204,-6.3325,-6.3383,-6.3337,-6.3472,-6.3522,-6.3625,-6.3666,-6.3613,-6.3824,-6.387,-6.4054,-6.4111,-6.4153,-6.4188,-6.4125,-6.4377,-6.44,-6.4422,-6.4502,-6.4533,-6.416,-6.4159,-6.4158,-6.4158,0,-6.3325,-6.3438,-6.3537,-6.3639,-6.3707,-6.3835,-6.3849,-6.3919,-6.3905,-6.3925,-6.4078,-6.4132,-6.4234,-6.4277,-6.4265,-6.4459,-6.4429,-6.4377,-6.4283,-6.4463,-6.4537,-6.4567,-6.4171,-6.4168,-6.4166,-6.4164,0,0,-6.3604,-6.3702,-6.3738,-6.3783,-6.3865,-6.3951,-6.4076,-6.4177,-6.4237,-6.4309,-6.4413,-6.4557,-6.4509,-6.4565,-6.4558,-6.4645,-6.4826,-6.4582,-6.4584,-6.4626,-6.5043,-6.5082,-6.5117,-6.4803,-6.4808,-6.4813,-6.5037,0,-6.3824,-6.4044,-6.4043,-6.4246,-6.4349,-6.4306,-6.4415,-6.4476,-6.4498,-6.4587,-6.461,-6.4712,-6.4642,-6.4675,-6.4759,-6.4787,-6.491,-6.477,-6.4898,-6.4903,-6.4882,-6.5156,-6.5198,-6.5407,-6.5066,-6.5071,-6.5075,0,-6.411,-6.4193,-6.4406,-6.4472,-6.4515,-6.4613,-6.4706,-6.4792,-6.486,-6.4869,-6.4932,-6.4912,-6.5037,-6.4939,-6.5112,-6.5017,-6.5068,-6.509,-6.5098,-6.511,-6.5,-6.5176,-6.5474,-6.5505,-6.512,-6.5117,-6.5113,0,-6.4292,-6.4456,-6.4605,-6.4645,-6.4726,-6.4796,-6.4832,-6.4894,-6.4955,-6.5035,-6.5074,-6.5167,-6.5218,-6.529,-6.5295,-6.5223,-6.5469,-6.5371,-6.548,-6.548,-6.5533,-6.553,-6.5844,-6.5567,-6.5567,-6.5566,-6.5565,0,-6.4537,-6.467,-6.4688,-6.4779,-6.4926,-6.4923,-6.5067,-6.5097,-6.5153,-6.5249,-6.5217,-6.5307,-6.5308,-6.54,-6.5404,-6.5546,-6.5569,-6.5579,-6.5579,-6.5583,-6.5581,-6.5617,-6.5602,-6.5574,-6.5572,-6.5571,-6.5569,0,-6.4765,-6.4783,-6.4942,-6.5005,-6.5024,-6.513,-6.5183,-6.527,-6.5288,-6.5409,-6.5438,-6.5466,-6.5572,-6.5585,-6.5708,-6.5711,-6.5882,-6.5866,-6.586,-6.5857,-6.5965,-6.5954,-6.6313,-6.6359,-6.6052,-6.6055,-6.6057,0,-6.4921,-6.5022,-6.5096,-6.5159,-6.5199,-6.53,-6.5362,-6.5363,-6.5428,-6.5513,-6.5589,-6.5692,-6.5775,-6.5946,-6.5977,-6.6071,-6.6057,-6.6176,-6.6071,-6.6071,-6.6059,-6.6053,-6.6063,-6.6197,-6.62,-6.6203,-6.6205,0,-6.5196,-6.5199,-6.529,-6.5385,-6.546,-6.5534,-6.5603,-6.5656,-6.5665,-6.574,-6.5849,-6.5913,-6.604,-6.6142,-6.6235,-6.627,-6.624,-6.6238,-6.6268,-6.6273,-6.6265,-6.6271,-6.5915,-6.623,-6.6227,-6.6226,-6.6224,-6.6223,-6.5393,-6.548,-6.5546,-6.5648,-6.5701,-6.5766,-6.5851,-6.588,-6.5971,-6.6075,-6.6069,-6.6189,-6.6253,-6.6374,-6.6417,-6.651,-6.647,-6.6514,-6.6525,-6.6535,-6.6546,-6.625,-6.6526,-6.6526,-6.6525,-6.6525,-6.6524,0,-6.5666,-6.5706,-6.58,-6.5899,-6.5979,-6.5944,-6.6018,-6.6087,-6.6194,-6.6257,-6.6339,-6.6463,-6.6563,-6.6601,-6.6698,-6.6765,-6.6753,-6.679,-6.6785,-6.6794,-6.6576,-6.6541,-6.6798,-6.6798,-6.6798,-6.6798,-6.6798,-6.6798,-6.5817,-6.5963,-6.5975,-6.6146,-6.6184,-6.6303,-6.6349,-6.6408,-6.6458,-6.66,-6.6682,-6.6707,-6.676,-6.686,-6.6949,-6.6958,-6.6995,-6.7038,-6.7041,-6.6837,-6.6809,-6.6783,-6.6749,-6.7046,-6.7047,-6.725,-6.7252,-6.7254]}]]